OPS 7034 (TRANSIT 18)

Last updated on Fri Jun 19 2026 20:04:44 GMT+0000 (Coordinated Universal Time)

1 03133U 68012A 26170.54973686 .00000093 00000+0 12646-3 0 9994 2 03133 90.0290 274.1120 0072921 345.1582 25.6964 13.51609131594693
UTC large
Height (km)
Speed (km/s)
/
Latitude / Longitude
Inclination (degrees)
Orbital Period (minutes)
Azimuth
Elevation
Range (km)
Doppler Factor

Next 0 passes for location: London (51.5072 / 0.1276)

Sorry there are no passes over London.
OPS 7034 (TRANSIT 18)